New Deal, TX

3:55 PM CDT on September 29, 2016 (GMT -0500)
Lubbock International

Weather History for KLBB - March, 2013

Change the Weather History Date:

Monday, March 11, 2013

  Actual Average Record
Temperature  
Mean Temperature 47 °F 50 °F  
Max Temperature 70 °F 65 °F 95 °F (1989)
Min Temperature 24 °F 36 °F 2 °F (1948)
Degree Days  
Heating Degree Days 18 15  
Month to date heating degree days 155 175  
Since 1 July heating degree days 2685 2914  
Cooling Degree Days 0 0  
Month to date cooling degree days 1 0  
Year to date cooling degree days 1 0  
Moisture  
Dew Point 15 °F    
Average Humidity 37    
Maximum Humidity 63    
Minimum Humidity 11    
Precipitation  
Precipitation 0.00 in 0.03 in 0.75 in (1935)
Month to date precipitation 0.00 0.35  
Year to date precipitation 2.23 1.75  
Snow  
Snow 0.00 in 0.00 in 2.00 in (1968)
Month to date snowfall 0.0 0.2  
Since 1 July snowfall 3.7 7.6  
Snow Depth 0.00 in    
Sea Level Pressure  
Sea Level Pressure 30.01 in    
Wind  
Wind Speed 10 mph (WSW)    
Max Wind Speed 23 mph    
Max Gust Speed 26 mph    
Visibility 10 miles    
Events      
T = Trace of Precipitation, MM = Missing Value Source: NWS Daily Summary

Daily Weather History Graph

Daily Weather History Graph

Search for Another Location

Airport or City:

Trip Planner

Search our weather history database for the weather conditions in past years. The results will help you decide how hot, cold, wet, or windy it might be!

Date:

Astronomy

Mar. 11, 2013 Rise Set
Actual Time 8:02 AM CDT 7:52 PM CDT
Civil Twilight 7:37 AM CDT 8:17 PM CDT
Nautical Twilight 7:08 AM CDT 8:45 PM CDT
Astronomical Twilight 6:39 AM CDT 9:15 PM CDT
Moon 7:38 AM CDT (3/11) 8:03 PM CDT (3/11)
Length of Visible Light 12h 39m
Length of Day
11h 49m
Waning Crescent, 0% of the Moon is Illuminated
Mar 11
Waning Crescent
Mar 11
New
Mar 19
First Quarter
Mar 27
Full
Apr 2
Last Quarter

Hourly Weather History & Observations

Time (CDT) Temp. Windchill Dew Point Humidity Pressure Visibility Wind Dir Wind Speed Gust Speed Precip Events Conditions
12:53 AM 30.9 °F 23.5 °F 10.9 °F 43% 30.14 in 10.0 mi NW 8.1 mph - N/A   Clear
1:53 AM 30.0 °F 22.4 °F 12.0 °F 47% 30.13 in 10.0 mi WNW 8.1 mph - N/A   Clear
2:53 AM 28.0 °F 20.8 °F 12.9 °F 53% 30.12 in 10.0 mi WNW 6.9 mph - N/A   Clear
3:53 AM 28.0 °F 19.3 °F 14.0 °F 56% 30.10 in 10.0 mi WNW 9.2 mph - N/A   Clear
4:53 AM 28.0 °F 20.8 °F 12.9 °F 53% 30.08 in 10.0 mi WNW 6.9 mph - N/A   Clear
5:53 AM 26.1 °F 19.4 °F 14.0 °F 60% 30.09 in 10.0 mi WNW 5.8 mph - N/A   Clear
6:53 AM 26.1 °F 19.4 °F 15.1 °F 63% 30.10 in 10.0 mi West 5.8 mph - N/A   Clear
7:53 AM 24.1 °F 18.2 °F 14.0 °F 65% 30.10 in 10.0 mi West 4.6 mph - N/A   Clear
8:53 AM 28.0 °F 22.8 °F 16.0 °F 61% 30.10 in 10.0 mi West 4.6 mph - N/A   Clear
9:53 AM 39.0 °F 34.8 °F 18.0 °F 43% 30.10 in 10.0 mi West 5.8 mph - N/A   Clear
10:53 AM 48.0 °F - 16.0 °F 28% 30.07 in 10.0 mi SW 16.1 mph - N/A   Clear
11:53 AM 54.0 °F - 19.9 °F 26% 30.04 in 10.0 mi WSW 11.5 mph - N/A   Clear
12:53 PM 60.1 °F - 21.9 °F 23% 30.03 in 10.0 mi WSW 9.2 mph - N/A   Clear
1:53 PM 62.1 °F - 21.9 °F 21% 30.00 in 10.0 mi SSW 9.2 mph - N/A   Clear
2:53 PM 66.9 °F - 19.0 °F 16% 29.95 in 10.0 mi WSW 15.0 mph 21.9 mph N/A   Clear
3:53 PM 69.1 °F - 17.1 °F 14% 29.91 in 10.0 mi WSW 13.8 mph 24.2 mph N/A   Clear
4:53 PM 70.0 °F - 15.1 °F 12% 29.89 in 10.0 mi West 19.6 mph 26.5 mph N/A   Clear
5:53 PM 69.8 °F - 14.0 °F 12% 29.92 in 10.0 mi West 20.7 mph - N/A   Clear
6:53 PM 68.0 °F - 12.0 °F 11% 29.88 in 10.0 mi West 13.8 mph - N/A   Clear
7:53 PM 60.1 °F - 12.9 °F 16% 29.90 in 10.0 mi SW 5.8 mph - N/A   Clear
8:53 PM 57.0 °F - 12.9 °F 18% 29.89 in 10.0 mi South 9.2 mph - N/A   Clear
9:53 PM 54.0 °F - 16.0 °F 22% 29.88 in 10.0 mi SSW 10.4 mph - N/A   Clear
10:53 PM 55.0 °F - 15.1 °F 21% 29.87 in 10.0 mi SSW 10.4 mph - N/A   Clear
11:53 PM 55.9 °F - 12.9 °F 18% 29.86 in 10.0 mi SW 12.7 mph - N/A   Clear